TimeEST,TemperatureF,Dew PointF,Humidity,Sea Level PressureIn,VisibilityMPH,Wind Direction,Wind SpeedMPH,Gust SpeedMPH,PrecipitationIn,Events,Conditions,WindDirDegrees,DateUTC
12:52 AM,16.0,14.0,92,29.98,10.0,Calm,Calm,-,N/A,,Clear,0,2013-02-15 05:52:00
1:52 AM,15.1,12.9,91,29.99,5.0,Calm,Calm,-,N/A,,Clear,0,2013-02-15 06:52:00
2:52 AM,14.0,12.0,92,29.98,5.0,Calm,Calm,-,N/A,,Clear,0,2013-02-15 07:52:00
3:52 AM,12.9,12.0,96,29.97,8.0,Calm,Calm,-,N/A,,Mostly Cloudy,0,2013-02-15 08:52:00
4:52 AM,16.0,14.0,92,29.97,8.0,Calm,Calm,-,0.00,,Overcast,0,2013-02-15 09:52:00
5:52 AM,14.0,12.0,92,29.97,7.0,South,3.5,-,N/A,,Clear,180,2013-02-15 10:52:00
6:52 AM,14.0,10.9,88,29.98,5.0,Calm,Calm,-,N/A,,Scattered Clouds,0,2013-02-15 11:52:00
7:52 AM,16.0,15.1,96,29.98,6.0,Calm,Calm,-,N/A,,Clear,0,2013-02-15 12:52:00
8:52 AM,27.0,25.0,92,29.99,6.0,SSW,4.6,-,N/A,,Clear,210,2013-02-15 13:52:00
9:52 AM,36.0,25.0,64,29.98,10.0,SSW,8.1,-,N/A,,Clear,210,2013-02-15 14:52:00
10:52 AM,39.0,27.0,62,29.97,10.0,WSW,9.2,-,N/A,,Clear,240,2013-02-15 15:52:00
11:52 AM,43.0,26.1,51,29.94,10.0,Variable,5.8,18.4,N/A,,Clear,0,2013-02-15 16:52:00
12:52 PM,44.1,26.1,49,29.93,10.0,WSW,9.2,27.6,N/A,,Clear,240,2013-02-15 17:52:00
1:52 PM,45.0,25.0,46,29.92,10.0,SW,9.2,17.3,N/A,,Clear,230,2013-02-15 18:52:00
2:52 PM,46.9,25.0,42,29.91,10.0,SSW,9.2,21.9,N/A,,Partly Cloudy,210,2013-02-15 19:52:00
3:52 PM,46.0,24.1,42,29.91,10.0,Variable,5.8,-,N/A,,Partly Cloudy,0,2013-02-15 20:52:00
4:52 PM,42.1,26.1,53,29.92,10.0,Calm,Calm,-,N/A,,Mostly Cloudy,0,2013-02-15 21:52:00
5:52 PM,37.0,27.0,67,29.95,10.0,SSW,4.6,-,N/A,,Scattered Clouds,200,2013-02-15 22:52:00
6:52 PM,39.0,24.1,55,29.96,10.0,Calm,Calm,-,N/A,,Clear,0,2013-02-15 23:52:00
8:52 PM,26.1,21.9,84,29.97,10.0,Calm,Calm,-,N/A,,Clear,0,2013-02-16 01:52:00
9:52 PM,24.1,21.9,91,29.97,10.0,Calm,Calm,-,N/A,,Mostly Cloudy,0,2013-02-16 02:52:00
10:52 PM,26.1,24.1,92,29.96,10.0,Calm,Calm,-,N/A,,Overcast,0,2013-02-16 03:52:00
11:52 PM,28.0,25.0,88,29.95,10.0,Calm,Calm,-,N/A,,Overcast,0,2013-02-16 04:52:00